| time (UTC) | temp F | wind direction | speed MPH | gust MPH | rain 1hr in | rain 24hr in | rain mn in | humidity % | barometer mb |
| 20260903031023 | 87 | 207 | 1.0 | 2.0 | 0.00 | 0.00 | 0.00 | 61 | 1024.8 |
| 20260903030523 | 88 | 189 | 1.0 | 3.0 | 0.00 | 0.00 | 0.00 | 61 | 1024.0 |
| 20260903030022 | 88 | 182 | 1.0 | 3.0 | 0.00 | 0.00 | 0.00 | 60 | 1023.4 |
| 20260903025604 | 88 | 187 | 1.0 | 2.0 | 0.00 | 0.00 | 0.00 | 60 | 1022.7 |
| 20260903025024 | 88 | 165 | 1.0 | 4.0 | 0.00 | 0.00 | 0.00 | 60 | 1022.2 |
| 20260903024522 | 88 | 176 | 1.0 | 2.0 | 0.00 | 0.00 | 0.00 | 60 | 1021.8 |
| 20260903024024 | 88 | 204 | 1.0 | 2.0 | 0.00 | 0.00 | 0.00 | 59 | 1021.3 |
| 20260903023524 | 88 | 177 | 1.0 | 3.0 | 0.00 | 0.00 | 0.00 | 59 | 1020.5 |
| 20260903023025 | 88 | 192 | 1.0 | 2.0 | 0.00 | 0.00 | 0.00 | 59 | 1020.1 |
| 20260903022524 | 89 | 183 | 1.0 | 2.0 | 0.00 | 0.00 | 0.00 | 58 | 1019.8 |
| 20260903022024 | 89 | 181 | 1.0 | 4.0 | 0.00 | 0.00 | 0.00 | 58 | 1018.9 |
| 20260903021522 | 89 | 165 | 2.0 | 4.0 | 0.00 | 0.00 | 0.00 | 58 | 1018.3 |
| 20260903021023 | 89 | 170 | 1.0 | 4.0 | 0.00 | 0.00 | 0.00 | 57 | 1018.0 |
| 20260903020536 | 89 | 192 | 1.0 | 4.0 | 0.00 | 0.00 | 0.00 | 57 | 1017.4 |
| 20260903020024 | 89 | 182 | 1.0 | 3.0 | 0.00 | 0.00 | 0.00 | 57 | 1016.9 |
| 20260903015543 | 90 | 181 | 1.0 | 2.0 | 0.00 | 0.00 | 0.00 | 56 | 1016.3 |
| 20260903015022 | 90 | 198 | 1.0 | 2.0 | 0.00 | 0.00 | 0.00 | 56 | 1015.7 |
| 20260903014525 | 90 | 184 | 1.0 | 2.0 | 0.00 | 0.00 | 0.00 | 55 | 1015.2 |
| 20260903014024 | 90 | 174 | 2.0 | 3.0 | 0.00 | 0.00 | 0.00 | 55 | 1014.6 |
| 20260903013522 | 90 | 157 | 1.0 | 3.0 | 0.00 | 0.00 | 0.00 | 54 | 1014.1 |
| 20260903013049 | 91 | 167 | 1.0 | 3.0 | 0.00 | 0.00 | 0.00 | 53 | 1013.7 |
| 20260903012522 | 91 | 163 | 2.0 | 4.0 | 0.00 | 0.00 | 0.00 | 52 | 1013.3 |
| 20260903012022 | 91 | 146 | 2.0 | 4.0 | 0.00 | 0.00 | 0.00 | 51 | 1012.9 |
| 20260903011536 | 91 | 172 | 1.0 | 4.0 | 0.00 | 0.00 | 0.00 | 50 | 1012.6 |
| 20260903011042 | 92 | 174 | 1.0 | 3.0 | 0.00 | 0.00 | 0.00 | 50 | 1012.4 |
| 20260903010522 | 92 | 214 | 1.0 | 3.0 | 0.00 | 0.00 | 0.00 | 49 | 1012.2 |
| 20260903010028 | 92 | 190 | 1.0 | 2.0 | 0.00 | 0.00 | 0.00 | 48 | 1012.0 |
| 20260903005559 | 93 | 214 | 1.0 | 2.0 | 0.00 | 0.00 | 0.00 | 48 | 1011.9 |
| 20260903005026 | 93 | 222 | 1.0 | 2.0 | 0.00 | 0.00 | 0.00 | 47 | 1011.8 |
| 20260903004524 | 93 | 221 | 0.0 | 1.0 | 0.00 | 0.00 | 0.00 | 47 | 1011.6 |
| 20260903004022 | 93 | 215 | 1.0 | 1.0 | 0.00 | 0.00 | 0.00 | 46 | 1011.5 |
| 20260903003525 | 94 | 194 | 0.0 | 1.0 | 0.00 | 0.00 | 0.00 | 46 | 1011.3 |
| 20260903003024 | 94 | 187 | 0.0 | 2.0 | 0.00 | 0.00 | 0.00 | 45 | 1011.2 |
| 20260903002525 | 94 | 154 | 1.0 | 4.0 | 0.00 | 0.00 | 0.00 | 44 | 1010.9 |
| 20260903002204 | 94 | 173 | 0.0 | 1.0 | 0.00 | 0.00 | 0.00 | 44 | 1010.7 |
| 20260903001523 | 95 | 175 | 1.0 | 2.0 | 0.00 | 0.00 | 0.00 | 43 | 1010.5 |
| 20260903001033 | 95 | 172 | 1.0 | 2.0 | 0.00 | 0.00 | 0.00 | 42 | 1010.3 |
| 20260903000523 | 95 | 167 | 1.0 | 4.0 | 0.00 | 0.00 | 0.00 | 41 | 1010.2 |
| 20260903000020 | 95 | 162 | 1.0 | 2.0 | 0.00 | 0.00 | 0.00 | 41 | 1010.0 |
| 20260902235521 | 95 | 190 | 0.0 | 1.0 | 0.00 | 0.00 | 0.00 | 41 | 1010.0 |
| 20260902235026 | 96 | 160 | 1.0 | 2.0 | 0.00 | 0.00 | 0.00 | 40 | 1009.9 |
| 20260902234543 | 96 | 186 | 1.0 | 2.0 | 0.00 | 0.00 | 0.00 | 40 | 1009.8 |
| 20260902234046 | 96 | 181 | 0.0 | 2.0 | 0.00 | 0.00 | 0.00 | 39 | 1009.8 |
| 20260902233544 | 96 | 165 | 1.0 | 3.0 | 0.00 | 0.00 | 0.00 | 39 | 1009.6 |
| 20260902233044 | 96 | 183 | 0.0 | 2.0 | 0.00 | 0.00 | 0.00 | 39 | 1009.6 |
| 20260902232525 | 96 | 160 | 0.0 | 2.0 | 0.00 | 0.00 | 0.00 | 38 | 1009.6 |
| 20260902232041 | 96 | 158 | 1.0 | 4.0 | 0.00 | 0.00 | 0.00 | 37 | 1009.4 |
| 20260902231521 | 97 | 163 | 1.0 | 3.0 | 0.00 | 0.00 | 0.00 | 37 | 1009.4 |
| 20260902231022 | 97 | 150 | 1.0 | 4.0 | 0.00 | 0.00 | 0.00 | 37 | 1009.3 |
| 20260902230524 | 97 | 167 | 1.0 | 3.0 | 0.00 | 0.00 | 0.00 | 37 | 1009.2 |
| 20260902230027 | 98 | 172 | 1.0 | 5.0 | 0.00 | 0.00 | 0.00 | 36 | 1009.1 |
| 20260902225521 | 98 | 149 | 2.0 | 6.0 | 0.00 | 0.00 | 0.00 | 36 | 1009.1 |
| 20260902225025 | 98 | 158 | 1.0 | 4.0 | 0.00 | 0.00 | 0.00 | 36 | 1009.1 |
| 20260902224527 | 99 | 165 | 1.0 | 4.0 | 0.00 | 0.00 | 0.00 | 36 | 1009.0 |
| 20260902224024 | 99 | 162 | 0.0 | 2.0 | 0.00 | 0.00 | 0.00 | 36 | 1009.1 |
| 20260902223522 | 99 | 175 | 1.0 | 4.0 | 0.00 | 0.00 | 0.00 | 35 | 1008.9 |
| 20260902223022 | 99 | 161 | 1.0 | 4.0 | 0.00 | 0.00 | 0.00 | 36 | 1009.1 |
| 20260902222521 | 99 | 122 | 1.0 | 3.0 | 0.00 | 0.00 | 0.00 | 35 | 1009.0 |
| 20260902222025 | 99 | 145 | 1.0 | 3.0 | 0.00 | 0.00 | 0.00 | 35 | 1009.0 |
| 20260902221522 | 100 | 158 | 1.0 | 3.0 | 0.00 | 0.00 | 0.00 | 35 | 1009.0 |
| 20260902221042 | 100 | 134 | 1.0 | 4.0 | 0.00 | 0.00 | 0.00 | 35 | 1009.0 |
| 20260902220522 | 100 | 143 | 1.0 | 4.0 | 0.00 | 0.00 | 0.00 | 34 | 1008.7 |
| 20260902220022 | 100 | 159 | 1.0 | 2.0 | 0.00 | 0.00 | 0.00 | 34 | 1008.6 |
| 20260902215548 | 100 | 148 | 1.0 | 2.0 | 0.00 | 0.00 | 0.00 | 34 | 1008.8 |
| 20260902215024 | 100 | 130 | 1.0 | 3.0 | 0.00 | 0.00 | 0.00 | 35 | 1008.9 |
| 20260902214526 | 100 | 149 | 1.0 | 3.0 | 0.00 | 0.00 | 0.00 | 35 | 1009.0 |
| 20260902213543 | 100 | 144 | 1.0 | 3.0 | 0.00 | 0.00 | 0.00 | 36 | 1009.2 |
| 20260902213052 | 99 | 67 | 1.0 | 3.0 | 0.00 | 0.00 | 0.00 | 37 | 1009.4 |
| 20260902212522 | 99 | 124 | 1.0 | 4.0 | 0.00 | 0.00 | 0.00 | 36 | 1009.4 |
| 20260902212023 | 99 | 150 | 1.0 | 4.0 | 0.00 | 0.00 | 0.00 | 36 | 1009.3 |
| 20260902211521 | 99 | 159 | 1.0 | 3.0 | 0.00 | 0.00 | 0.00 | 38 | 1009.7 |
| 20260902211028 | 99 | 161 | 1.0 | 4.0 | 0.00 | 0.00 | 0.00 | 37 | 1009.6 |
| 20260902210521 | 100 | 129 | 2.0 | 5.0 | 0.00 | 0.00 | 0.00 | 37 | 1009.8 |
| 20260902210024 | 100 | 156 | 1.0 | 4.0 | 0.00 | 0.00 | 0.00 | 36 | 1009.5 |
| 20260902205526 | 100 | 172 | 1.0 | 3.0 | 0.00 | 0.00 | 0.00 | 36 | 1009.5 |
| 20260902205041 | 100 | 157 | 2.0 | 4.0 | 0.00 | 0.00 | 0.00 | 38 | 1009.8 |
| 20260902204544 | 100 | 145 | 1.0 | 3.0 | 0.00 | 0.00 | 0.00 | 38 | 1009.9 |
| 20260902204035 | 100 | 176 | 1.0 | 4.0 | 0.00 | 0.00 | 0.00 | 38 | 1009.9 |
| 20260902203524 | 100 | 134 | 2.0 | 5.0 | 0.00 | 0.00 | 0.00 | 38 | 1010.0 |
| 20260902203020 | 100 | 155 | 1.0 | 3.0 | 0.00 | 0.00 | 0.00 | 37 | 1009.8 |
| 20260902202531 | 100 | 150 | 1.0 | 2.0 | 0.00 | 0.00 | 0.00 | 38 | 1010.0 |
| 20260902202021 | 99 | 137 | 1.0 | 3.0 | 0.00 | 0.00 | 0.00 | 38 | 1010.0 |
| 20260902201521 | 99 | 159 | 1.0 | 3.0 | 0.00 | 0.00 | 0.00 | 39 | 1010.1 |
| 20260902201022 | 99 | 145 | 1.0 | 3.0 | 0.00 | 0.00 | 0.00 | 38 | 1010.4 |
| 20260902200521 | 100 | 154 | 1.0 | 4.0 | 0.00 | 0.00 | 0.00 | 38 | 1010.2 |
| 20260902200024 | 99 | 184 | 0.0 | 3.0 | 0.00 | 0.00 | 0.00 | 37 | 1010.2 |
| 20260902195526 | 99 | 137 | 2.0 | 5.0 | 0.00 | 0.00 | 0.00 | 37 | 1010.2 |
| 20260902195022 | 99 | 140 | 1.0 | 4.0 | 0.00 | 0.00 | 0.00 | 38 | 1010.3 |
| 20260902194521 | 99 | 177 | 1.0 | 5.0 | 0.00 | 0.00 | 0.00 | 37 | 1010.3 |
| 20260902194024 | 99 | 140 | 2.0 | 4.0 | 0.00 | 0.00 | 0.00 | 38 | 1010.4 |
| 20260902193531 | 100 | 148 | 2.0 | 6.0 | 0.00 | 0.00 | 0.00 | 38 | 1010.4 |
| 20260902193022 | 100 | 138 | 1.0 | 4.0 | 0.00 | 0.00 | 0.00 | 39 | 1010.6 |
| 20260902192542 | 100 | 152 | 1.0 | 2.0 | 0.00 | 0.00 | 0.00 | 39 | 1010.9 |
| 20260902192022 | 100 | 109 | 1.0 | 3.0 | 0.00 | 0.00 | 0.00 | 39 | 1010.7 |
| 20260902191522 | 100 | 137 | 2.0 | 3.0 | 0.00 | 0.00 | 0.00 | 39 | 1010.9 |
| 20260902191024 | 100 | 179 | 2.0 | 5.0 | 0.00 | 0.00 | 0.00 | 40 | 1010.9 |
| 20260902190522 | 100 | 141 | 2.0 | 5.0 | 0.00 | 0.00 | 0.00 | 40 | 1011.1 |
| 20260902190022 | 100 | 166 | 1.0 | 3.0 | 0.00 | 0.00 | 0.00 | 40 | 1011.2 |
| 20260902185523 | 100 | 138 | 1.0 | 4.0 | 0.00 | 0.00 | 0.00 | 39 | 1011.0 |
| 20260902185023 | 100 | 131 | 2.0 | 4.0 | 0.00 | 0.00 | 0.00 | 40 | 1011.3 |
| 20260902184522 | 100 | 127 | 2.0 | 6.0 | 0.00 | 0.00 | 0.00 | 39 | 1011.1 |
| 20260902184024 | 100 | 172 | 1.0 | 3.0 | 0.00 | 0.00 | 0.00 | 40 | 1011.2 |
| 20260902183522 | 100 | 156 | 1.0 | 3.0 | 0.00 | 0.00 | 0.00 | 40 | 1011.1 |
| 20260902183023 | 100 | 150 | 1.0 | 4.0 | 0.00 | 0.00 | 0.00 | 40 | 1011.1 |
| 20260902182544 | 100 | 305 | 1.0 | 3.0 | 0.00 | 0.00 | 0.00 | 41 | 1011.3 |
| 20260902182047 | 100 | 267 | 1.0 | 4.0 | 0.00 | 0.00 | 0.00 | 42 | 1011.5 |
| 20260902181541 | 100 | 145 | 1.0 | 4.0 | 0.00 | 0.00 | 0.00 | 42 | 1011.5 |
| 20260902181045 | 100 | 132 | 2.0 | 5.0 | 0.00 | 0.00 | 0.00 | 40 | 1011.0 |
| 20260902180532 | 101 | 199 | 1.0 | 5.0 | 0.00 | 0.00 | 0.00 | 40 | 1011.2 |
| 20260902180031 | 101 | 140 | 2.0 | 4.0 | 0.00 | 0.00 | 0.00 | 40 | 1011.1 |
| 20260902175524 | 102 | 197 | 1.0 | 6.0 | 0.00 | 0.00 | 0.00 | 39 | 1011.2 |
| 20260902175027 | 101 | 277 | 1.0 | 3.0 | 0.00 | 0.00 | 0.00 | 41 | 1011.5 |
| 20260902174524 | 100 | 274 | 2.0 | 5.0 | 0.00 | 0.00 | 0.00 | 40 | 1011.5 |
| 20260902174021 | 99 | 287 | 2.0 | 5.0 | 0.00 | 0.00 | 0.00 | 42 | 1011.7 |
| 20260902173540 | 99 | 186 | 2.0 | 5.0 | 0.00 | 0.00 | 0.00 | 43 | 1011.9 |
| 20260902173030 | 99 | 168 | 2.0 | 4.0 | 0.00 | 0.00 | 0.00 | 42 | 1011.9 |
| 20260902172520 | 100 | 153 | 2.0 | 5.0 | 0.00 | 0.00 | 0.00 | 42 | 1012.0 |
| 20260902172030 | 100 | 160 | 1.0 | 5.0 | 0.00 | 0.00 | 0.00 | 43 | 1012.1 |
| 20260902171521 | 100 | 176 | 2.0 | 5.0 | 0.00 | 0.00 | 0.00 | 43 | 1012.1 |
| 20260902171023 | 100 | 185 | 1.0 | 4.0 | 0.00 | 0.00 | 0.00 | 42 | 1012.1 |
| 20260902170526 | 99 | 164 | 1.0 | 5.0 | 0.00 | 0.00 | 0.00 | 43 | 1012.3 |
| 20260902170029 | 100 | 125 | 1.0 | 4.0 | 0.00 | 0.00 | 0.00 | 42 | 1012.1 |
| 20260902165523 | 100 | 142 | 1.0 | 4.0 | 0.00 | 0.00 | 0.00 | 42 | 1012.1 |
| 20260902165023 | 100 | 158 | 1.0 | 4.0 | 0.00 | 0.00 | 0.00 | 41 | 1012.0 |
| 20260902164525 | 99 | 252 | 1.0 | 4.0 | 0.00 | 0.00 | 0.00 | 42 | 1012.2 |
| 20260902164022 | 99 | 165 | 1.0 | 4.0 | 0.00 | 0.00 | 0.00 | 42 | 1012.1 |
| 20260902163523 | 99 | 285 | 1.0 | 4.0 | 0.00 | 0.00 | 0.00 | 41 | 1011.9 |
| 20260902163022 | 98 | 236 | 1.0 | 4.0 | 0.00 | 0.00 | 0.00 | 43 | 1012.4 |
| 20260902162522 | 97 | 151 | 1.0 | 4.0 | 0.00 | 0.00 | 0.00 | 44 | 1012.6 |
| 20260902162021 | 96 | 174 | 2.0 | 4.0 | 0.00 | 0.00 | 0.00 | 45 | 1012.8 |
| 20260902161523 | 96 | 151 | 2.0 | 5.0 | 0.00 | 0.00 | 0.00 | 45 | 1012.9 |
| 20260902161022 | 96 | 164 | 2.0 | 5.0 | 0.00 | 0.00 | 0.00 | 45 | 1012.8 |
| 20260902160524 | 96 | 163 | 2.0 | 5.0 | 0.00 | 0.00 | 0.00 | 46 | 1013.0 |
| 20260902160022 | 96 | 162 | 2.0 | 5.0 | 0.00 | 0.00 | 0.00 | 47 | 1013.2 |
| 20260902155529 | 95 | 151 | 2.0 | 6.0 | 0.00 | 0.00 | 0.00 | 46 | 1012.9 |
| 20260902155033 | 95 | 189 | 1.0 | 3.0 | 0.00 | 0.00 | 0.00 | 48 | 1013.3 |
| 20260902154532 | 94 | 152 | 2.0 | 4.0 | 0.00 | 0.00 | 0.00 | 49 | 1013.5 |
| 20260902154023 | 94 | 145 | 2.0 | 4.0 | 0.00 | 0.00 | 0.00 | 48 | 1013.5 |
| 20260902153522 | 94 | 144 | 2.0 | 4.0 | 0.00 | 0.00 | 0.00 | 48 | 1013.4 |
| 20260902153023 | 94 | 138 | 2.0 | 5.0 | 0.00 | 0.00 | 0.00 | 48 | 1013.3 |
| 20260902152523 | 94 | 210 | 1.0 | 2.0 | 0.00 | 0.00 | 0.00 | 49 | 1013.4 |
| 20260902152022 | 94 | 161 | 2.0 | 7.0 | 0.00 | 0.00 | 0.00 | 49 | 1013.4 |
| 20260902151530 | 93 | 158 | 2.0 | 4.0 | 0.00 | 0.00 | 0.00 | 50 | 1013.5 |
| 20260902151103 | 93 | 145 | 2.0 | 6.0 | 0.00 | 0.00 | 0.00 | 50 | 1013.5 |
| 20260902150523 | 93 | 148 | 2.0 | 4.0 | 0.00 | 0.00 | 0.00 | 51 | 1013.5 |
| 20260902150023 | 93 | 152 | 1.0 | 3.0 | 0.00 | 0.00 | 0.00 | 52 | 1013.6 |
| 20260902145523 | 92 | 145 | 1.0 | 3.0 | 0.00 | 0.00 | 0.00 | 52 | 1013.7 |
| 20260902145129 | 92 | 174 | 1.0 | 3.0 | 0.00 | 0.00 | 0.00 | 52 | 1013.7 |
| 20260902144553 | 91 | 182 | 1.0 | 2.0 | 0.00 | 0.00 | 0.00 | 53 | 1013.9 |
| 20260902144033 | 91 | 144 | 2.0 | 3.0 | 0.00 | 0.00 | 0.00 | 54 | 1014.1 |
| 20260902143548 | 90 | 158 | 1.0 | 4.0 | 0.00 | 0.00 | 0.00 | 55 | 1014.3 |
| 20260902143048 | 89 | 155 | 1.0 | 2.0 | 0.00 | 0.00 | 0.00 | 57 | 1015.4 |
| 20260902142533 | 88 | 235 | 1.0 | 2.0 | 0.00 | 0.00 | 0.00 | 58 | 1016.9 |
| 20260902142033 | 88 | 128 | 1.0 | 2.0 | 0.00 | 0.00 | 0.00 | 59 | 1018.3 |
| 20260902141532 | 87 | 163 | 1.0 | 3.0 | 0.00 | 0.00 | 0.00 | 60 | 1021.4 |
| 20260902141035 | 87 | 183 | 1.0 | 2.0 | 0.00 | 0.00 | 0.00 | 60 | 1021.5 |
| 20260902140534 | 86 | 146 | 1.0 | 3.0 | 0.00 | 0.00 | 0.00 | 61 | 1023.8 |
| 20260902140131 | 86 | 197 | 1.0 | 2.0 | 0.00 | 0.00 | 0.00 | 62 | 1026.6 |
| 20260902135535 | 85 | 179 | 1.0 | 3.0 | 0.00 | 0.00 | 0.00 | 63 | 1028.6 |
| 20260902135106 | 85 | 127 | 1.0 | 3.0 | 0.00 | 0.00 | 0.00 | 63 | 1029.6 |
| 20260902134536 | 85 | 179 | 1.0 | 2.0 | 0.00 | 0.00 | 0.00 | 64 | 1031.4 |
| 20260902134053 | 84 | 180 | 2.0 | 2.0 | 0.00 | 0.00 | 0.00 | 64 | 1032.5 |
| 20260902133622 | 84 | 140 | 1.0 | 2.0 | 0.00 | 0.00 | 0.00 | 64 | 1031.6 |
| 20260902133055 | 84 | 165 | 1.0 | 2.0 | 0.00 | 0.00 | 0.00 | 65 | 1036.7 |
| 20260902132535 | 83 | 138 | 1.0 | 2.0 | 0.00 | 0.00 | 0.00 | 65 | 1037.0 |
| 20260902132049 | 83 | 159 | 1.0 | 2.0 | 0.00 | 0.00 | 0.00 | 66 | 1039.9 |
| 20260902131534 | 83 | 210 | 1.0 | 1.0 | 0.00 | 0.00 | 0.00 | 66 | 1041.5 |
| 20260902131049 | 83 | 78 | 1.0 | 2.0 | 0.00 | 0.00 | 0.00 | 66 | 1040.8 |
| 20260902130535 | 82 | 144 | 1.0 | 2.0 | 0.00 | 0.00 | 0.00 | 67 | 1042.9 |
| 20260902130037 | 82 | 76 | 1.0 | 2.0 | 0.00 | 0.00 | 0.00 | 67 | 1045.7 |
| 20260902125550 | 82 | 165 | 1.0 | 2.0 | 0.00 | 0.00 | 0.00 | 68 | 1048.1 |
| 20260902125106 | 82 | 195 | 1.0 | 2.0 | 0.00 | 0.00 | 0.00 | 68 | 1053.2 |
| 20260902124535 | 81 | 136 | 1.0 | 2.0 | 0.00 | 0.00 | 0.00 | 69 | 1054.3 |
| 20260902124115 | 81 | 208 | 1.0 | 2.0 | 0.00 | 0.00 | 0.00 | 69 | 1055.6 |
| 20260902123536 | 81 | 202 | 1.0 | 2.0 | 0.00 | 0.00 | 0.00 | 70 | 1058.3 |
| 20260902123036 | 81 | 210 | 1.0 | 2.0 | 0.00 | 0.00 | 0.00 | 70 | 1057.6 |
| 20260902122537 | 81 | 226 | 1.0 | 2.0 | 0.00 | 0.00 | 0.00 | 69 | 1057.0 |
| 20260902122036 | 81 | 203 | 1.0 | 2.0 | 0.00 | 0.00 | 0.00 | 70 | 1057.0 |
| 20260902121600 | 81 | 324 | 1.0 | 2.0 | 0.00 | 0.00 | 0.00 | 70 | 1057.1 |
| 20260902121020 | 81 | 218 | 1.0 | 2.0 | 0.00 | 0.00 | 0.00 | 69 | 1056.1 |
| 20260902120521 | 81 | 223 | 1.0 | 2.0 | 0.00 | 0.00 | 0.00 | 69 | 1053.9 |
| 20260902120021 | 81 | 210 | 1.0 | 2.0 | 0.00 | 0.00 | 0.00 | 69 | 1053.2 |
| 20260902115522 | 81 | 192 | 1.0 | 1.0 | 0.00 | 0.00 | 0.00 | 69 | 1053.0 |
| 20260902115022 | 81 | 221 | 1.0 | 2.0 | 0.00 | 0.00 | 0.00 | 69 | 1053.0 |
| 20260902114522 | 81 | 166 | 1.0 | 2.0 | 0.00 | 0.00 | 0.00 | 68 | 1051.1 |
| 20260902114021 | 81 | 212 | 1.0 | 2.0 | 0.00 | 0.00 | 0.00 | 68 | 1051.0 |
| 20260902113611 | 81 | 212 | 1.0 | 2.0 | 0.00 | 0.00 | 0.00 | 68 | 1050.1 |
| 20260902113051 | 81 | 102 | 1.0 | 3.0 | 0.00 | 0.00 | 0.00 | 68 | 1049.7 |
| 20260902112536 | 81 | 127 | 1.0 | 2.0 | 0.00 | 0.00 | 0.00 | 68 | 1050.3 |
| 20260902112039 | 81 | 203 | 1.0 | 2.0 | 0.00 | 0.00 | 0.00 | 68 | 1050.1 |
| 20260902111539 | 81 | 220 | 1.0 | 2.0 | 0.00 | 0.00 | 0.00 | 68 | 1048.7 |
| 20260902111053 | 81 | 175 | 1.0 | 2.0 | 0.00 | 0.00 | 0.00 | 67 | 1047.1 |
| 20260902110522 | 81 | 218 | 1.0 | 2.0 | 0.00 | 0.00 | 0.00 | 67 | 1046.7 |
| 20260902110022 | 81 | 201 | 1.0 | 2.0 | 0.00 | 0.00 | 0.00 | 67 | 1046.5 |
| 20260902105522 | 81 | 213 | 1.0 | 2.0 | 0.00 | 0.00 | 0.00 | 67 | 1046.9 |
| 20260902105024 | 81 | 159 | 1.0 | 2.0 | 0.00 | 0.00 | 0.00 | 67 | 1045.8 |
| 20260902104522 | 81 | 221 | 1.0 | 2.0 | 0.00 | 0.00 | 0.00 | 67 | 1044.8 |
| 20260902104021 | 81 | 194 | 1.0 | 2.0 | 0.00 | 0.00 | 0.00 | 67 | 1044.6 |
| 20260902103543 | 82 | 165 | 1.0 | 2.0 | 0.00 | 0.00 | 0.00 | 67 | 1044.8 |
| 20260902103037 | 82 | 211 | 1.0 | 2.0 | 0.00 | 0.00 | 0.00 | 67 | 1046.0 |
| 20260902102522 | 82 | 206 | 1.0 | 2.0 | 0.00 | 0.00 | 0.00 | 67 | 1045.6 |
| 20260902102025 | 82 | 193 | 1.0 | 2.0 | 0.00 | 0.00 | 0.00 | 67 | 1044.7 |
| 20260902101544 | 82 | 189 | 1.0 | 1.0 | 0.00 | 0.00 | 0.00 | 67 | 1047.3 |
| 20260902101025 | 82 | 179 | 1.0 | 3.0 | 0.00 | 0.00 | 0.00 | 68 | 1047.7 |
| 20260902100542 | 81 | 191 | 1.0 | 2.0 | 0.00 | 0.00 | 0.00 | 68 | 1049.8 |
| 20260902100022 | 81 | 187 | 1.0 | 2.0 | 0.00 | 0.00 | 0.00 | 68 | 1050.8 |
| 20260902095523 | 81 | 159 | 2.0 | 2.0 | 0.00 | 0.00 | 0.00 | 69 | 1053.1 |
| 20260902095053 | 81 | 176 | 1.0 | 2.0 | 0.00 | 0.00 | 0.00 | 70 | 1057.6 |
| 20260902094553 | 81 | 186 | 1.0 | 2.0 | 0.00 | 0.00 | 0.00 | 70 | 1058.2 |
| 20260902094022 | 81 | 136 | 1.0 | 2.0 | 0.00 | 0.00 | 0.00 | 70 | 1059.7 |
| 20260902093626 | 81 | 142 | 1.0 | 2.0 | 0.00 | 0.00 | 0.00 | 70 | 1060.6 |
| 20260902093038 | 81 | 183 | 1.0 | 2.0 | 0.00 | 0.00 | 0.00 | 70 | 1059.7 |
| 20260902092523 | 81 | 190 | 1.0 | 2.0 | 0.00 | 0.00 | 0.00 | 70 | 1059.4 |
| 20260902092038 | 81 | 198 | 1.0 | 2.0 | 0.00 | 0.00 | 0.00 | 70 | 1059.3 |
| 20260902091545 | 81 | 154 | 1.0 | 2.0 | 0.00 | 0.00 | 0.00 | 70 | 1058.6 |
| 20260902091024 | 81 | 181 | 2.0 | 4.0 | 0.00 | 0.00 | 0.00 | 70 | 1058.7 |
| 20260902090557 | 81 | 192 | 1.0 | 2.0 | 0.00 | 0.00 | 0.00 | 70 | 1059.7 |
| 20260902090023 | 82 | 139 | 1.0 | 2.0 | 0.00 | 0.00 | 0.00 | 70 | 1059.7 |
| 20260902085615 | 82 | 194 | 1.0 | 2.0 | 0.00 | 0.00 | 0.00 | 70 | 1058.4 |
| 20260902085039 | 82 | 201 | 1.0 | 2.0 | 0.00 | 0.00 | 0.00 | 69 | 1055.6 |
| 20260902084524 | 82 | 185 | 1.0 | 2.0 | 0.00 | 0.00 | 0.00 | 69 | 1053.1 |
| 20260902084024 | 82 | 200 | 1.0 | 2.0 | 0.00 | 0.00 | 0.00 | 68 | 1052.1 |
| 20260902083539 | 82 | 164 | 1.0 | 2.0 | 0.00 | 0.00 | 0.00 | 68 | 1051.6 |
| 20260902083025 | 82 | 141 | 1.0 | 3.0 | 0.00 | 0.00 | 0.00 | 68 | 1051.1 |
| 20260902082540 | 82 | 157 | 1.0 | 2.0 | 0.00 | 0.00 | 0.00 | 68 | 1051.1 |
| 20260902082025 | 82 | 183 | 2.0 | 3.0 | 0.00 | 0.00 | 0.00 | 68 | 1049.9 |
| 20260902081608 | 83 | 169 | 2.0 | 3.0 | 0.00 | 0.00 | 0.00 | 68 | 1049.8 |
| 20260902081040 | 83 | 156 | 1.0 | 2.0 | 0.00 | 0.00 | 0.00 | 68 | 1049.5 |
| 20260902080540 | 83 | 129 | 1.0 | 2.0 | 0.00 | 0.00 | 0.00 | 67 | 1048.8 |
| 20260902080044 | 83 | 147 | 2.0 | 3.0 | 0.00 | 0.00 | 0.00 | 67 | 1046.4 |
| 20260902075544 | 83 | 196 | 2.0 | 3.0 | 0.00 | 0.00 | 0.00 | 67 | 1046.3 |
| 20260902075024 | 83 | 159 | 1.0 | 3.0 | 0.00 | 0.00 | 0.00 | 67 | 1046.3 |
| 20260902074526 | 83 | 181 | 1.0 | 2.0 | 0.00 | 0.00 | 0.00 | 67 | 1045.7 |
| 20260902074115 | 83 | 142 | 2.0 | 3.0 | 0.00 | 0.00 | 0.00 | 66 | 1044.3 |
| 20260902073609 | 83 | 154 | 1.0 | 2.0 | 0.00 | 0.00 | 0.00 | 67 | 1045.0 |
| 20260902073028 | 83 | 171 | 1.0 | 2.0 | 0.00 | 0.00 | 0.00 | 67 | 1045.3 |
| 20260902072526 | 83 | 178 | 1.0 | 2.0 | 0.00 | 0.00 | 0.00 | 67 | 1045.4 |
| 20260902072025 | 83 | 115 | 1.0 | 2.0 | 0.00 | 0.00 | 0.00 | 67 | 1045.2 |
| 20260902071543 | 83 | 149 | 1.0 | 2.0 | 0.00 | 0.00 | 0.00 | 67 | 1045.8 |
| 20260902071041 | 83 | 171 | 1.0 | 2.0 | 0.00 | 0.00 | 0.00 | 67 | 1046.6 |
| 20260902070526 | 83 | 165 | 1.0 | 2.0 | 0.00 | 0.00 | 0.00 | 67 | 1046.4 |
| 20260902070028 | 83 | 159 | 2.0 | 2.0 | 0.00 | 0.00 | 0.00 | 67 | 1047.7 |
| 20260902065546 | 83 | 166 | 1.0 | 2.0 | 0.00 | 0.00 | 0.00 | 67 | 1048.0 |
| 20260902065026 | 83 | 154 | 1.0 | 3.0 | 0.00 | 0.00 | 0.00 | 67 | 1049.1 |
| 20260902064526 | 83 | 129 | 1.0 | 2.0 | 0.00 | 0.00 | 0.00 | 68 | 1052.1 |
| 20260902064027 | 83 | 186 | 1.0 | 2.0 | 0.00 | 0.00 | 0.00 | 68 | 1052.8 |
| 20260902063541 | 83 | 161 | 1.0 | 2.0 | 0.00 | 0.00 | 0.00 | 68 | 1053.2 |
| 20260902063102 | 83 | 174 | 1.0 | 1.0 | 0.00 | 0.00 | 0.00 | 68 | 1053.3 |
| 20260902062526 | 83 | 149 | 1.0 | 2.0 | 0.00 | 0.00 | 0.00 | 68 | 1052.3 |
| 20260902062047 | 83 | 175 | 1.0 | 2.0 | 0.00 | 0.00 | 0.00 | 68 | 1052.2 |
| 20260902061541 | 83 | 195 | 1.0 | 2.0 | 0.00 | 0.00 | 0.00 | 67 | 1051.0 |
| 20260902061201 | 84 | 189 | 1.0 | 2.0 | 0.00 | 0.00 | 0.00 | 67 | 1049.7 |
| 20260902060528 | 84 | 189 | 1.0 | 2.0 | 0.00 | 0.00 | 0.00 | 67 | 1048.2 |
| 20260902055521 | 84 | 184 | 1.0 | 3.0 | 0.00 | 0.00 | 0.00 | 66 | 1046.1 |
| 20260902055028 | 84 | 168 | 1.0 | 3.0 | 0.00 | 0.00 | 0.00 | 66 | 1045.0 |
| 20260902054534 | 84 | 195 | 1.0 | 2.0 | 0.00 | 0.00 | 0.00 | 66 | 1044.1 |
| 20260902054022 | 84 | 165 | 1.0 | 3.0 | 0.00 | 0.00 | 0.00 | 66 | 1042.9 |
| 20260902053528 | 84 | 158 | 2.0 | 3.0 | 0.00 | 0.00 | 0.00 | 65 | 1042.1 |
| 20260902053028 | 84 | 172 | 2.0 | 4.0 | 0.00 | 0.00 | 0.00 | 65 | 1041.4 |
| 20260902052525 | 84 | 148 | 2.0 | 3.0 | 0.00 | 0.00 | 0.00 | 65 | 1041.6 |
| 20260902052044 | 84 | 161 | 1.0 | 3.0 | 0.00 | 0.00 | 0.00 | 65 | 1041.8 |
| 20260902051521 | 85 | 153 | 1.0 | 4.0 | 0.00 | 0.00 | 0.00 | 65 | 1040.9 |
| 20260902051023 | 85 | 172 | 1.0 | 3.0 | 0.00 | 0.00 | 0.00 | 65 | 1039.3 |
| 20260902050522 | 85 | 189 | 1.0 | 2.0 | 0.00 | 0.00 | 0.00 | 64 | 1038.9 |
| 20260902050022 | 85 | 160 | 1.0 | 3.0 | 0.00 | 0.00 | 0.00 | 64 | 1038.0 |
| 20260902045523 | 85 | 169 | 2.0 | 3.0 | 0.00 | 0.00 | 0.00 | 64 | 1037.0 |
| 20260902045023 | 85 | 155 | 1.0 | 3.0 | 0.00 | 0.00 | 0.00 | 64 | 1035.7 |
| 20260902044543 | 85 | 194 | 1.0 | 2.0 | 0.00 | 0.00 | 0.00 | 63 | 1034.5 |
| 20260902044043 | 86 | 164 | 1.0 | 3.0 | 0.00 | 0.00 | 0.00 | 63 | 1033.4 |
| 20260902043526 | 86 | 160 | 2.0 | 4.0 | 0.00 | 0.00 | 0.00 | 63 | 1032.5 |
| 20260902043023 | 86 | 176 | 1.0 | 4.0 | 0.00 | 0.00 | 0.00 | 62 | 1031.5 |
| 20260902042543 | 86 | 157 | 2.0 | 3.0 | 0.00 | 0.00 | 0.00 | 62 | 1030.1 |
| 20260902042027 | 86 | 161 | 2.0 | 4.0 | 0.00 | 0.00 | 0.00 | 61 | 1029.0 |
| 20260902041533 | 86 | 170 | 2.0 | 3.0 | 0.00 | 0.00 | 0.00 | 61 | 1027.6 |
| 20260902041023 | 86 | 159 | 2.0 | 3.0 | 0.00 | 0.00 | 0.00 | 61 | 1027.1 |
| 20260902040520 | 86 | 146 | 1.0 | 3.0 | 0.00 | 0.00 | 0.00 | 61 | 1027.0 |
| 20260902040023 | 86 | 168 | 1.0 | 4.0 | 0.00 | 0.00 | 0.00 | 60 | 1026.1 |
| 20260902035524 | 86 | 164 | 2.0 | 2.0 | 0.00 | 0.00 | 0.00 | 60 | 1025.5 |
| 20260902035032 | 87 | 169 | 1.0 | 2.0 | 0.00 | 0.00 | 0.00 | 60 | 1025.1 |
| 20260902034524 | 87 | 192 | 1.0 | 3.0 | 0.00 | 0.00 | 0.00 | 60 | 1024.9 |
| 20260902034104 | 87 | 169 | 1.0 | 3.0 | 0.00 | 0.00 | 0.00 | 60 | 1024.1 |
| 20260902033524 | 87 | 172 | 1.0 | 3.0 | 0.00 | 0.00 | 0.00 | 59 | 1023.3 |
| 20260902033030 | 87 | 179 | 1.0 | 3.0 | 0.00 | 0.00 | 0.00 | 59 | 1022.7 |
| 20260902032542 | 87 | 190 | 1.0 | 3.0 | 0.00 | 0.00 | 0.00 | 58 | 1021.6 |
| 20260902032022 | 87 | 167 | 1.0 | 3.0 | 0.00 | 0.00 | 0.00 | 58 | 1021.4 |
| 20260902031522 | 87 | 177 | 1.0 | 3.0 | 0.00 | 0.00 | 0.00 | 58 | 1020.7 |